Location: B?dargowo
(53.3916°N, 14.4413°E)
Time: 04:18:45
(UTC+00:00)

Cosmos 2219 Rocket - Pass Details

Date: 05 February 2023
Orbit: 826 x 848 km, 71.0° (Epoch: 24 March)

Event Time Altitude Azimuth Distance (km) Brightness Sun altitude
Rises 17:33:07 0° 180° (S) 3,354 5.4 -15.2°
Reaches altitude 10° 17:35:42 10° 172° (S) 2,427 4.6 -15.5°
Maximum altitude 17:40:42 35° 108° (ESE) 1,308 2.7 -16.3°
Enters shadow 17:43:08 24° 63° (ENE) 1,650 3.2 -16.6°
